Regional Weather Roundup
Issued by NWS

Home | Current Version | Previous Version | Text Only | Print | Product List | Glossary On
Versions: 1 2 3 4 5 6 7 8 9 10 11 12 13 14 15 16 17 18 19 20 21 22 23 24 25 26 27 28 29 30 31 32 33 34 35 36 37 38 39 40 41 42 43 44 45 46 47 48 49 50
000
ASUS44 KJAN 300510
RWRMS

MISSISSIPPI HOURLY WEATHER ROUNDUP
NATIONAL WEATHER SERVICE JACKSON MS
1100 PM CST THU JAN 29 2015

NOTE: "FAIR: INDICATES FEW OR NO CLOUDS BELOW 12,000 FEET WITH NO
SIGNIFICANT WEATHER AND/OR OBSTRUCTIONS TO VISIBILITY.

MSZ001>002-007>008-010>013-018>021-025>028-034>036-300600-
NORTHWEST MISSISSIPPI

CITY           SKY/WX    TMP DP  RH WIND       PRES   REMARKS
CLARKSDALE     MOCLDY    43  32  65 N16       30.44R
CLEVELAND      CLOUDY    44  35  69 N18G28    30.42R
GREENWOOD      CLOUDY    46  34  62 N13G23    30.39R
GREENVILLE     CLOUDY    45  34  65 N18       30.41R
GRENADA        CLOUDY    45  32  61 N10G18    30.40R
OLIVE BRANCH   CLOUDY    41  32  70 N13G21    30.41R
OXFORD         MOCLDY    41  28  60 N13G22    30.41R
TUNICA         PTCLDY    41  32  70 N10       30.44R
$$

MSZ003>006-009-014>017-022>024-029>033-037>039-300600-
NORTHEAST MISSISSIPPI

CITY           SKY/WX    TMP DP  RH WIND       PRES   REMARKS
COLUMBUS AFB   CLOUDY    47  34  61 N16G25    30.34R
CORINTH        CLOUDY    43  30  61 NW12      30.37R
GOLDN TRIANGLE CLOUDY    46  36  66 N16G24    30.32R
STARKVILLE     CLOUDY    46  36  66 NW7G16    30.34R
TUPELO         CLOUDY    44  31  60 N20G30    30.37R
$$

MSZ040-058-300600-
CENTRAL MISSISSIPPI

CITY           SKY/WX    TMP DP  RH WIND       PRES   REMARKS
JACKSON INTL   PTCLDY    50  39  66 N14       30.34R
JACKSON HAWKNS CLEAR     49  38  65 N13G21    30.34R
MERIDIAN KEY   PTCLDY    56  41  57 N16       30.26R
MERIDIAN NAS   CLEAR     55  41  59 N17G24    30.28R
RAYMOND        FAIR      48  45  87 MISG      30.35R
VICKSBURG      PTCLDY    47  36  65 N24G31    30.39R
$$

MSZ059>079-300600-
SOUTH MISSISSIPPI

CITY           SKY/WX    TMP DP  RH WIND       PRES   REMARKS
BROOKHAVEN     FAIR      55  43  62 N13G24    30.30R
HATTIESBURG    PTCLDY    60  51  72 N10       30.24R
MCCOMB         MOCLDY    61  48  62 N14       30.25R
NATCHEZ        MOCLDY    55  39  54 N24G30    30.33R
PINE BELT      PTCLDY    59  46  63 N9        30.25R
$$

MSZ080>082-300600-
COASTAL MISSISSIPPI

CITY           SKY/WX    TMP DP  RH WIND       PRES   REMARKS
BILOXI         PTCLDY    59  59  98 SW5       30.21S
PASCAGOULA     PTCLDY    59  56  89 SW5       30.21S
GULFPORT       MOCLDY    59  56  89 W3        30.21S
$$


USA.gov is the U.S. government's official web portal to all federal, state and local government web resources and services.